Date,TemperatureHighF,TemperatureAvgF,TemperatureLowF,DewpointHighF,DewpointAvgF,DewpointLowF,HumidityHigh,HumidityAvg,HumidityLow,PressureMaxIn,PressureMinIn,WindSpeedMaxMPH,WindSpeedAvgMPH,GustSpeedMaxMPH,PrecipitationSumIn
2013-1-1,51.8,45.8,41.4,42.8,37.8,32.5,92,75,52,30.30,30.23,13,3,19,0.00
2013-1-2,55.0,46.9,41.2,39.2,36.1,32.7,87,67,43,30.26,30.17,10,2,13,0.00
2013-1-3,53.6,46.5,42.1,41.5,39.1,35.1,88,76,63,30.29,30.18,7,2,10,0.00
2013-1-4,54.9,48.0,43.0,41.5,38.7,37.4,86,71,53,30.31,30.21,10,2,12,0.00
2013-1-5,52.2,48.4,44.2,48.6,45.3,39.0,97,89,76,30.28,30.09,9,1,11,0.21
2013-1-6,51.3,46.7,43.7,47.5,44.0,42.4,96,90,75,30.22,30.07,9,2,13,0.07
2013-1-7,56.8,49.4,43.3,51.4,46.3,41.4,97,89,77,30.30,30.19,6,1,9,0.01
2013-1-8,59.4,51.0,45.3,48.7,46.1,43.7,95,84,66,30.27,30.16,9,1,9,0.00
2013-1-9,51.6,47.7,44.2,50.0,44.3,37.9,97,88,76,30.18,30.04,20,4,24,0.01
2013-1-10,49.3,44.7,41.7,38.5,36.3,33.8,82,72,57,30.23,30.11,14,5,20,0.00
2013-1-11,48.9,44.6,41.4,42.1,37.3,32.0,89,76,63,30.29,30.16,16,4,18,0.00
2013-1-12,48.9,43.0,37.8,38.7,33.4,24.4,90,70,39,30.28,30.17,8,1,9,0.00
2013-1-13,48.6,42.0,36.7,36.5,27.5,16.9,83,58,32,30.30,30.22,15,2,16,0.00
2013-1-14,49.1,43.3,37.2,35.8,23.0,15.3,78,47,29,30.43,30.26,15,3,22,0.00
2013-1-15,52.9,44.6,39.0,37.2,33.0,26.6,89,65,37,30.51,30.43,9,2,13,0.00
2013-1-16,55.6,46.6,39.6,39.0,36.2,32.5,90,68,50,30.46,30.28,8,3,10,0.00
2013-1-17,62.4,51.6,43.5,39.6,34.5,30.7,78,54,32,30.29,30.18,11,2,14,0.00
2013-1-18,63.7,53.5,46.9,39.7,35.2,29.5,72,51,31,30.25,30.16,12,2,14,0.00
2013-1-19,62.2,54.4,48.4,37.6,33.7,28.2,59,46,33,30.26,30.18,12,2,15,0.00
2013-1-20,63.5,54.4,48.6,37.6,33.7,30.4,61,46,29,30.25,30.15,9,2,13,0.00
2013-1-21,63.0,53.9,46.8,40.1,36.6,28.4,69,53,40,30.20,30.10,12,2,15,0.00
2013-1-22,60.4,53.8,47.5,42.4,39.6,36.0,74,59,44,30.14,30.02,8,2,12,0.00
2013-1-23,58.1,53.1,49.6,51.1,44.8,36.0,96,75,47,30.11,29.98,6,1,12,0.16
2013-1-24,58.5,53.4,49.8,52.0,50.4,48.4,96,90,78,30.22,30.09,5,1,10,0.00
2013-1-25,63.0,55.7,51.4,54.9,52.1,49.3,95,88,75,30.22,30.07,8,1,11,0.00
2013-1-26,52.7,49.9,47.3,50.0,46.0,42.4,98,87,74,30.12,30.04,16,6,22,0.00
2013-1-27,52.5,47.2,42.1,43.3,39.7,35.8,86,75,58,30.21,30.11,12,4,17,0.00
2013-1-28,54.1,48.3,44.2,45.0,41.7,37.8,91,78,63,30.33,30.20,11,4,17,0.00
2013-1-29,53.6,48.9,45.3,46.9,43.5,41.2,92,82,68,30.39,30.30,10,2,14,0.00
2013-1-30,63.0,53.5,45.9,49.5,44.6,40.8,94,73,47,30.38,30.29,5,1,7,0.00
2013-1-31,62.2,53.4,46.4,48.0,45.3,42.4,87,74,57,30.31,30.21,9,2,12,0.00
2013-2-1,63.9,54.0,47.5,48.2,45.9,44.1,96,75,53,30.25,30.15,8,2,13,0.00
2013-2-2,53.8,48.9,47.1,49.3,47.1,44.2,98,94,84,30.33,30.25,7,2,9,0.00
2013-2-3,54.1,48.8,46.0,47.5,44.7,41.5,97,86,71,30.29,30.18,10,2,11,0.00
2013-2-4,52.3,47.6,45.9,48.7,46.2,44.6,98,95,85,30.21,30.10,11,2,14,0.00
2013-2-5,51.8,48.4,46.2,48.6,45.5,41.9,96,90,82,30.19,30.11,15,4,22,0.00
2013-2-6,53.1,47.7,42.4,47.3,43.9,39.9,96,87,66,30.24,30.17,11,2,15,0.00
2013-2-7,52.2,47.1,41.5,47.5,44.0,39.7,97,89,72,30.21,30.03,14,2,16,0.30
2013-2-8,50.5,45.6,40.6,44.8,39.6,27.3,96,81,43,30.06,29.97,11,2,14,0.16
2013-2-9,55.6,48.3,42.3,41.5,34.2,23.4,88,60,29,30.12,30.03,10,2,11,0.00
2013-2-10,57.9,47.9,41.2,45.9,40.1,33.1,94,76,43,30.15,30.06,7,1,9,0.00
2013-2-11,62.1,51.4,44.8,47.3,36.7,25.7,96,61,27,30.27,30.10,11,2,19,0.00
2013-2-12,58.8,48.4,43.5,46.9,45.1,41.2,97,89,54,30.40,30.26,6,1,10,0.00
2013-2-13,55.2,48.2,42.6,50.0,46.1,41.9,98,93,73,30.38,30.26,5,1,8,0.01
2013-2-14,67.6,54.7,45.0,47.1,45.0,43.0,98,72,41,30.27,30.19,7,1,11,0.01
2013-2-15,69.8,60.7,53.6,45.1,41.5,36.9,71,50,36,30.30,30.23,7,2,13,0.00
2013-2-16,65.8,55.3,48.4,50.2,46.5,42.3,96,74,50,30.25,30.09,10,3,14,0.00
2013-2-17,55.6,49.5,45.0,47.5,45.5,43.0,97,87,66,30.09,30.02,8,2,12,0.00
2013-2-18,50.9,47.5,45.9,45.5,42.3,37.9,95,83,71,30.07,30.00,17,4,19,0.00
2013-2-19,46.9,44.1,38.5,44.8,39.6,34.0,94,84,70,30.01,29.79,16,4,22,0.28
2013-2-20,53.8,46.1,38.7,43.9,39.0,33.4,86,77,59,30.10,29.88,13,3,18,0.00
2013-2-21,54.7,47.7,41.7,43.7,39.9,33.3,93,75,44,30.20,30.09,15,3,17,0.00
2013-2-22,55.0,48.5,43.7,46.4,43.4,39.4,92,83,61,30.30,30.20,15,3,20,0.00
2013-2-23,53.4,49.2,45.0,48.2,40.8,28.6,96,74,45,30.29,30.21,14,5,19,0.01
2013-2-24,58.5,50.0,45.9,44.1,32.9,22.3,93,55,27,30.28,30.21,20,4,21,0.00
2013-2-25,54.3,48.2,43.0,48.0,44.4,41.5,96,87,69,30.30,30.22,10,2,14,0.01
2013-2-26,60.6,50.0,43.5,44.1,37.4,23.5,93,65,26,30.25,30.19,13,3,16,0.00
2013-2-27,60.6,50.7,43.5,50.0,44.8,39.0,96,81,56,30.40,30.24,9,2,13,0.00
2013-2-28,59.0,50.8,47.7,52.2,49.0,46.6,98,94,78,30.49,30.40,7,2,10,0.00
2013-3-1,69.4,56.3,48.6,54.1,50.1,47.1,98,81,52,30.46,30.27,8,2,11,0.01
2013-3-2,67.6,56.2,49.1,53.2,49.7,47.8,96,80,56,30.27,30.11,9,2,14,0.00
2013-3-3,53.1,49.3,46.6,50.2,47.6,44.6,97,94,87,30.14,30.09,12,3,16,0.00
2013-3-4,51.6,46.9,44.8,45.3,43.9,41.7,96,90,75,30.19,30.10,12,2,17,0.00
2013-3-5,55.8,48.7,42.4,46.6,43.0,39.9,92,81,66,30.10,29.86,14,3,23,0.12
2013-3-6,53.6,49.4,43.9,48.7,45.0,41.7,95,85,70,30.10,29.87,14,2,19,0.08
2013-3-7,55.4,47.3,43.2,45.9,43.2,39.6,96,86,58,30.03,29.90,6,1,10,0.05
2013-3-8,51.8,48.0,44.8,46.2,44.3,41.5,96,87,80,30.09,29.87,19,5,32,0.01
2013-3-9,57.0,49.7,42.3,48.6,44.3,39.7,93,82,61,30.35,30.09,9,2,12,0.00
2013-3-10,61.0,51.8,44.8,50.9,46.3,42.8,96,83,55,30.38,30.30,7,2,11,0.00
2013-3-11,67.3,51.7,44.6,50.5,46.6,43.7,97,84,44,30.30,30.15,8,2,11,0.01
2013-3-12,63.1,51.2,46.0,53.6,48.3,45.5,99,90,65,30.19,30.12,7,2,10,0.00
2013-3-13,70.2,54.5,45.1,54.1,49.8,44.6,99,86,55,30.19,30.11,8,1,10,0.01
2013-3-14,57.7,49.5,46.2,52.5,47.7,45.7,99,94,78,30.22,30.12,8,2,13,0.01
2013-3-15,66.2,51.9,46.4,53.6,48.7,45.3,98,90,61,30.18,30.08,10,2,13,0.01
2013-3-16,63.0,51.0,46.9,51.8,48.0,46.4,99,90,62,30.16,30.07,13,3,17,0.00
2013-3-17,59.5,50.9,46.8,47.5,45.1,43.3,91,81,61,30.19,30.09,13,3,16,0.00
2013-3-18,59.4,49.7,45.0,48.2,46.0,43.3,97,88,65,30.17,30.08,7,2,12,0.01
2013-3-19,60.6,51.0,46.0,49.6,46.4,40.1,96,85,49,30.17,30.09,10,1,11,0.07
2013-3-20,57.9,52.2,48.2,53.2,49.6,45.7,98,91,75,30.18,30.09,10,2,15,0.15
2013-3-21,55.6,48.6,41.5,47.7,44.0,39.7,98,85,65,30.18,30.06,13,3,17,0.00
2013-3-22,57.6,50.5,44.1,44.6,40.4,27.1,93,70,35,30.17,30.07,11,2,13,0.00
2013-3-23,64.0,52.5,44.8,44.6,38.4,23.5,92,62,24,30.17,30.09,9,2,15,0.00
2013-3-24,56.5,49.3,45.5,48.4,45.9,43.9,96,88,71,30.13,30.03,11,3,15,0.00
2013-3-25,52.0,47.7,45.3,45.7,44.4,43.5,95,88,76,30.08,29.95,13,3,21,0.00
2013-3-26,55.0,49.8,46.6,48.4,46.1,44.1,95,87,75,30.05,29.99,21,3,21,0.00
2013-3-27,57.0,52.3,48.4,52.7,50.3,46.9,98,93,81,30.05,29.98,6,1,10,0.01
2013-3-28,59.7,54.1,51.3,56.7,52.5,50.2,99,95,84,30.12,30.03,12,1,12,0.02
2013-3-29,71.2,55.1,49.1,55.0,51.1,48.4,98,88,53,30.12,30.05,10,2,13,0.01
2013-3-30,64.9,54.9,50.5,54.5,51.9,50.0,99,90,66,30.11,30.00,7,1,16,0.10
2013-3-31,63.0,56.4,52.0,55.8,53.1,50.9,97,89,72,30.10,30.02,9,2,16,0.14
2013-4-1,58.3,54.2,50.4,54.5,52.4,49.5,98,94,83,30.19,30.07,9,1,13,0.42
2013-4-2,55.2,51.0,48.4,52.0,49.8,47.8,98,96,87,30.23,30.14,13,2,14,0.00
2013-4-3,73.0,52.2,47.7,55.8,49.2,44.4,99,91,36,30.18,30.04,9,2,14,0.00
2013-4-4,59.4,54.2,48.9,56.7,53.2,48.4,99,97,89,30.16,30.02,10,2,17,0.39
2013-4-5,58.5,54.0,50.9,55.4,52.9,50.4,99,97,83,30.23,30.15,9,1,13,0.02
2013-4-6,56.1,53.2,51.4,55.2,52.5,50.0,100,98,94,30.24,30.18,7,1,15,0.03
2013-4-7,57.0,53.3,51.1,55.2,51.3,47.5,97,93,82,30.22,29.88,19,3,27,0.04
2013-4-8,57.9,51.4,46.0,48.0,43.1,38.8,93,74,55,30.07,29.83,31,8,34,0.01
2013-4-9,66.0,59.2,52.3,48.9,41.0,32.4,72,52,32,30.14,30.07,15,4,23,0.00
2013-4-10,73.6,59.8,50.0,52.2,47.8,42.6,96,67,41,30.22,30.10,14,2,18,0.00
2013-4-11,62.1,51.8,47.5,49.6,47.5,45.5,97,86,59,30.11,29.89,14,4,18,0.00
2013-4-12,58.8,49.8,45.9,50.5,46.8,44.4,97,90,73,29.96,29.89,15,3,17,0.01
2013-4-13,56.5,50.5,46.0,49.5,45.5,42.8,95,83,71,29.95,29.88,16,4,26,0.00
2013-4-14,55.6,49.2,44.2,45.5,42.5,39.6,94,78,61,29.98,29.91,20,4,24,0.00
2013-4-15,53.1,47.4,43.9,47.7,41.6,38.7,96,81,66,30.00,29.90,24,8,35,0.01
2013-4-16,57.2,50.5,42.1,44.4,39.8,31.1,84,68,40,30.20,30.00,13,3,16,0.00
2013-4-17,64.0,55.5,48.2,45.0,36.6,25.9,88,51,24,30.31,30.20,17,5,21,0.00
2013-4-18,67.3,55.1,46.6,48.2,42.8,32.7,91,66,28,30.31,30.23,10,2,12,0.00
2013-4-19,67.3,54.2,46.8,52.3,48.2,45.5,96,81,56,30.27,30.12,8,3,14,0.00
2013-4-20,67.3,53.8,47.1,51.6,47.6,44.8,95,81,46,30.14,30.04,12,2,13,0.00
2013-4-21,72.7,59.4,46.9,52.9,47.8,44.2,94,68,40,30.08,29.97,8,2,10,0.00
2013-4-22,81.0,65.0,53.1,51.3,46.2,36.7,85,53,21,30.00,29.89,10,2,14,0.00
2013-4-23,71.4,57.7,48.0,49.6,41.2,23.2,94,62,17,29.98,29.89,14,4,20,0.00
2013-4-24,54.0,50.1,46.8,50.5,48.0,45.7,97,92,84,29.99,29.86,9,2,19,0.00
2013-4-25,57.7,53.1,50.5,51.6,49.8,47.3,97,89,78,30.17,29.99,14,3,17,0.00
2013-4-26,55.6,50.8,48.0,49.8,47.6,46.4,95,89,79,30.28,30.16,13,3,18,0.00
2013-4-27,55.9,49.2,46.9,50.5,47.7,46.2,98,94,80,30.27,30.12,11,2,14,0.00
2013-4-28,65.8,55.2,48.0,52.3,49.3,46.9,97,82,54,30.12,29.92,7,2,11,0.00
2013-4-29,75.4,60.5,50.7,55.9,51.1,47.3,92,72,42,29.94,29.81,9,2,12,0.00
2013-4-30,66.4,56.3,48.7,51.3,46.6,31.5,93,72,28,29.90,29.82,9,2,12,0.00
2013-5-1,72.9,62.8,53.2,50.9,38.1,20.5,86,47,15,30.11,29.88,13,3,21,0.00
2013-5-2,87.4,69.9,54.7,46.8,36.7,27.7,72,32,12,30.18,30.11,10,2,13,0.00
2013-5-3,78.6,64.2,52.7,50.9,42.9,29.7,86,48,25,30.11,29.83,8,2,10,0.00
2013-5-4,66.7,57.3,52.0,54.5,50.2,41.7,94,79,47,29.82,29.61,13,3,23,0.00
2013-5-5,65.7,58.6,52.2,52.5,49.6,47.5,85,72,57,29.83,29.64,10,2,19,0.00
2013-5-6,65.7,59.3,55.6,53.6,51.7,48.7,90,77,56,30.00,29.83,9,2,13,0.00
2013-5-7,63.7,56.7,52.2,56.3,53.3,51.1,97,89,73,30.08,29.98,10,2,13,0.00
2013-5-8,56.5,52.3,50.5,51.8,50.4,48.7,98,93,83,30.18,30.07,13,3,24,0.00
2013-5-9,55.4,52.0,50.0,50.5,49.0,48.0,94,90,82,30.22,30.14,17,5,23,0.00
2013-5-10,53.8,51.0,49.5,51.6,49.8,48.0,98,96,92,30.23,30.17,11,4,20,0.00
2013-5-11,63.9,53.1,48.9,55.9,50.8,48.4,99,92,73,30.20,30.11,10,2,13,0.00
2013-5-12,60.3,54.7,51.1,55.6,52.8,50.5,99,94,82,30.20,30.08,10,2,15,0.00
2013-5-13,57.9,53.7,50.5,55.2,52.0,49.8,99,94,83,30.14,30.00,11,3,16,0.00
2013-5-14,59.2,54.0,50.2,52.2,49.8,46.9,97,86,74,30.05,29.96,14,4,20,0.00
2013-5-15,58.3,52.6,48.9,52.2,49.3,46.8,97,89,76,30.10,30.03,14,4,21,0.00
2013-5-16,57.2,53.4,51.4,56.1,52.3,50.7,99,96,88,30.08,30.01,17,4,20,0.01
2013-5-17,59.4,53.2,49.8,53.2,50.0,48.6,97,89,74,30.12,30.01,14,5,24,0.00
2013-5-18,62.1,54.8,48.6,53.1,50.1,47.1,96,85,67,30.18,30.10,13,4,20,0.00
2013-5-19,66.9,56.9,48.7,54.0,50.0,47.3,96,79,55,30.16,30.03,11,2,15,0.00
2013-5-20,76.6,59.9,49.8,54.0,49.2,43.9,94,71,35,30.05,29.97,11,3,16,0.00
2013-5-21,57.9,52.6,48.4,50.9,47.5,42.3,94,83,70,30.06,29.95,24,7,28,0.00
2013-5-22,56.1,51.1,45.3,45.0,41.2,34.7,87,69,49,30.06,29.95,17,5,25,0.00
2013-5-23,57.6,51.4,46.6,47.5,44.9,43.0,90,79,62,30.06,29.96,15,5,18,0.00
2013-5-24,60.1,51.3,45.7,48.9,45.8,43.5,94,82,64,30.05,30.00,16,3,21,0.00
2013-5-25,56.8,51.5,47.1,49.8,47.6,45.3,96,87,75,30.10,29.99,13,5,25,0.00
2013-5-26,58.5,53.4,50.5,54.0,51.7,49.5,98,94,83,30.17,30.09,13,4,18,0.01
2013-5-27,55.2,53.5,50.7,54.7,52.7,49.8,99,97,95,30.17,30.03,12,3,17,0.12
2013-5-28,59.5,55.0,52.3,58.1,53.8,51.4,99,96,86,30.04,29.96,11,3,20,0.03
2013-5-29,59.7,54.8,50.7,55.0,51.8,48.2,98,90,76,30.02,29.95,15,4,21,0.00
2013-5-30,61.5,54.0,48.2,51.1,48.7,46.9,97,83,67,30.04,29.97,12,3,20,0.00
2013-5-31,71.4,56.7,48.0,52.2,49.2,46.4,95,78,45,30.06,29.96,12,2,15,0.01
2013-6-1,71.2,57.5,49.1,54.3,49.8,47.3,94,77,52,29.97,29.83,10,3,15,0.00
2013-6-2,59.4,53.0,49.3,52.3,49.9,48.2,97,90,76,29.83,29.73,12,3,17,0.00
2013-6-3,62.6,54.6,49.6,54.1,51.1,48.6,96,88,71,29.90,29.76,11,2,18,0.00
2013-6-4,59.9,54.3,52.0,54.3,51.7,50.4,97,91,80,30.00,29.88,11,3,16,0.00
2013-6-5,57.0,53.1,51.3,51.8,50.5,49.3,96,91,82,30.04,29.97,10,2,17,0.00
2013-6-6,58.5,53.1,50.0,53.6,50.9,49.1,98,93,80,29.99,29.91,9,2,18,0.00
2013-6-7,65.5,56.0,50.9,57.0,52.8,50.4,99,90,71,29.94,29.78,10,2,13,0.01
2013-6-8,59.9,55.8,51.1,55.4,53.2,50.2,98,91,83,29.84,29.76,12,3,19,0.00
2013-6-9,57.6,55.4,54.5,56.1,54.5,53.8,99,97,93,29.92,29.84,9,2,14,0.00
2013-6-10,64.6,57.0,53.4,55.6,53.5,52.0,98,89,69,29.99,29.83,14,3,19,0.00
2013-6-11,62.4,55.8,52.2,55.0,52.2,50.0,97,88,75,30.03,29.94,9,2,15,0.00
2013-6-12,62.4,55.5,50.2,53.1,50.5,48.6,95,84,70,30.04,29.94,13,4,19,0.00
2013-6-13,63.1,55.4,47.8,52.2,49.8,46.0,95,82,65,30.14,30.03,12,3,15,0.01
2013-6-14,72.9,57.4,50.2,55.4,50.7,48.0,93,80,42,30.03,29.89,9,2,17,0.00
2013-6-15,54.7,51.2,49.3,51.3,49.6,48.2,97,94,87,30.05,29.87,15,3,17,0.00
2013-6-16,60.6,53.8,49.8,54.7,50.9,48.9,97,90,78,30.14,30.03,12,3,20,0.00
2013-6-17,61.9,54.9,50.2,56.5,52.9,49.6,98,93,82,30.14,30.07,16,5,23,0.00
2013-6-18,58.5,54.3,52.2,54.0,52.5,51.4,98,94,84,30.09,30.03,16,7,24,0.00
2013-6-19,62.1,56.0,51.3,53.2,50.8,48.2,97,83,68,30.11,30.04,17,5,24,0.00
2013-6-20,62.4,55.4,48.9,52.5,49.9,47.1,95,82,67,30.05,30.00,21,4,21,0.00
2013-6-21,62.4,55.1,49.6,53.8,50.9,48.6,97,86,69,30.04,29.96,10,3,17,0.00
2013-6-22,65.7,56.9,49.8,55.2,51.8,48.4,97,84,64,29.98,29.91,11,3,18,0.00
2013-6-23,59.7,55.6,52.5,59.4,55.2,52.0,99,99,97,29.92,29.85,11,2,17,0.09
2013-6-24,57.9,55.2,52.9,57.7,54.9,52.7,100,99,98,29.94,29.83,6,1,10,0.04
2013-6-25,67.5,62.0,57.9,64.4,61.0,57.6,99,97,89,30.02,29.91,9,2,15,0.18
2013-6-26,70.5,63.5,58.5,64.4,61.3,57.7,100,93,78,30.09,30.00,8,2,14,0.03
2013-6-27,69.4,62.1,56.5,64.0,58.5,55.9,99,89,72,30.12,30.06,8,2,12,0.01
2013-6-28,75.0,62.6,55.6,63.0,57.6,55.0,99,85,61,30.06,29.95,9,2,13,0.00
2013-6-29,73.9,63.0,56.1,58.8,56.3,53.8,93,80,59,29.96,29.85,12,4,16,0.00
2013-6-30,64.2,59.2,55.2,57.9,55.8,54.1,97,89,79,29.89,29.81,11,5,17,0.00
2013-7-1,75.6,59.7,53.8,61.2,55.6,53.2,99,87,58,29.91,29.83,12,3,15,0.00
2013-7-2,65.8,57.9,54.9,59.5,56.1,54.0,99,94,79,29.96,29.86,10,3,17,0.00
2013-7-3,70.7,60.4,55.8,60.6,57.4,55.4,99,91,69,29.95,29.81,8,2,13,0.00
2013-7-4,67.6,61.4,55.0,60.4,56.4,51.3,98,84,73,29.83,29.73,16,3,21,0.00
2013-7-5,58.5,55.0,52.3,53.8,52.2,51.3,97,90,82,29.83,29.75,12,3,20,0.00
2013-7-6,60.1,54.5,52.3,54.9,52.3,51.3,97,92,82,29.85,29.79,12,4,21,0.00
2013-7-7,62.4,56.2,53.2,55.8,53.4,51.8,96,90,77,29.90,29.82,13,2,17,0.00
2013-7-8,61.5,56.3,53.2,55.9,53.6,52.3,98,91,79,30.01,29.90,8,2,15,0.00
2013-7-9,62.8,55.9,50.9,58.3,53.7,50.5,99,93,77,30.07,29.99,7,2,14,0.00
2013-7-10,59.5,54.5,52.0,55.8,53.2,51.1,99,96,86,30.02,29.95,15,2,19,0.00
2013-7-11,56.7,53.1,50.5,54.1,51.8,50.2,99,96,88,29.99,29.93,11,2,17,0.01
2013-7-12,57.9,54.3,52.2,54.1,52.3,50.9,97,93,86,29.99,29.93,9,3,18,0.00
2013-7-13,62.8,55.6,52.3,55.8,53.0,51.4,98,91,76,30.01,29.93,12,3,16,0.00
2013-7-14,57.0,53.7,51.4,54.1,52.3,50.9,98,95,88,30.04,29.96,10,2,18,0.00
2013-7-15,58.1,53.6,50.0,55.0,52.4,49.6,99,96,88,29.97,29.89,9,2,17,0.01
2013-7-16,62.1,56.4,52.2,57.0,54.5,51.4,98,94,80,30.06,29.90,10,2,12,0.02
2013-7-17,60.6,56.4,53.4,56.3,54.6,52.5,98,94,85,30.14,30.06,9,3,15,0.00
2013-7-18,60.6,54.6,52.5,55.9,53.3,51.6,99,95,83,30.10,29.99,11,2,15,0.00
2013-7-19,58.6,54.1,52.2,55.4,52.9,51.4,99,96,86,29.99,29.89,11,3,19,0.00
2013-7-20,58.3,52.8,51.1,54.5,51.8,50.5,99,97,87,29.90,29.80,13,3,19,0.00
2013-7-21,57.6,53.6,51.4,54.9,52.6,51.1,99,97,88,29.92,29.81,9,2,15,0.00
2013-7-22,60.6,56.1,53.2,57.7,55.3,52.7,100,97,89,30.00,29.92,7,2,13,0.00
2013-7-23,64.2,57.5,54.3,60.3,55.9,54.0,100,95,80,30.05,29.97,9,2,13,0.00
2013-7-24,63.1,56.8,53.1,57.6,55.1,52.5,100,94,81,30.04,29.96,12,2,14,0.01
2013-7-25,59.0,54.3,52.0,55.9,53.3,51.6,100,97,88,30.06,29.97,8,2,18,0.00
2013-7-26,59.5,55.1,52.5,57.0,54.3,52.2,100,97,89,30.14,30.05,12,2,16,0.01
2013-7-27,58.8,55.0,53.1,56.7,54.2,52.7,100,98,91,30.07,29.91,10,2,17,0.01
2013-7-28,56.8,54.5,53.1,54.9,53.5,52.2,100,97,92,29.92,29.86,9,2,14,0.00
2013-7-29,61.0,55.7,53.2,55.8,53.9,52.3,98,94,83,30.05,29.88,12,3,18,0.01
2013-7-30,58.8,55.2,52.3,55.2,53.5,51.6,98,94,88,30.14,30.05,11,2,15,0.00
2013-7-31,59.9,55.1,51.4,55.4,53.4,50.9,99,94,84,30.13,30.05,14,3,20,0.00
2013-8-1,60.3,56.1,53.2,55.9,53.8,52.3,97,92,84,30.12,30.00,13,4,21,0.00
2013-8-2,61.3,54.7,51.3,55.8,52.9,50.7,99,94,82,30.02,29.96,11,3,13,0.00
2013-8-3,59.7,54.2,51.3,55.2,52.8,50.7,99,95,84,30.02,29.96,11,2,17,0.00
2013-8-4,57.6,54.0,51.8,54.3,52.8,51.4,99,96,85,30.05,30.00,11,2,18,0.01
2013-8-5,56.8,53.9,52.0,54.5,52.9,51.1,99,96,90,30.07,29.99,13,2,15,0.02
2013-8-6,59.5,55.7,52.3,56.5,54.1,52.0,99,95,85,30.08,30.01,14,2,17,0.02
2013-8-7,64.9,58.2,54.7,58.3,56.1,54.3,99,93,79,30.14,30.07,7,2,13,0.02
2013-8-8,63.1,57.4,53.4,58.3,55.7,52.5,99,94,80,30.07,29.98,16,2,21,0.08
2013-8-9,61.5,56.4,53.1,58.5,55.2,52.2,99,96,85,30.03,29.95,10,2,15,0.03
2013-8-10,62.1,57.4,54.9,57.7,56.1,54.3,99,96,85,30.09,30.02,11,2,17,0.01
2013-8-11,57.7,55.2,54.0,56.1,54.7,53.6,100,98,93,30.06,29.99,10,2,15,0.01
2013-8-12,63.5,56.2,53.8,58.3,55.1,53.2,100,97,81,30.04,29.98,9,2,14,0.00
2013-8-13,68.7,58.9,54.9,58.8,55.5,53.2,98,89,68,30.02,29.96,10,2,17,0.00
2013-8-14,64.8,57.9,53.2,59.7,56.3,52.7,99,95,81,30.02,29.95,13,3,18,0.00
2013-8-15,66.6,61.2,57.7,63.3,60.3,57.4,100,97,88,30.01,29.94,9,2,16,0.00
2013-8-16,62.8,58.8,56.3,61.2,58.1,55.9,100,98,89,30.04,29.97,10,2,15,0.01
2013-8-17,65.7,58.7,55.2,60.6,57.2,54.9,99,95,83,30.03,29.90,10,3,17,0.00
2013-8-18,68.7,61.0,55.4,61.3,57.7,55.0,100,89,74,29.92,29.82,11,3,14,0.00
2013-8-19,64.2,58.8,54.7,59.5,57.0,54.1,99,94,82,29.94,29.83,9,3,15,0.00
2013-8-20,64.6,59.1,56.3,59.5,57.1,55.6,100,93,82,29.94,29.87,11,3,17,0.00
2013-8-21,64.2,58.8,56.1,57.6,55.8,54.7,96,90,78,29.98,29.91,10,2,16,0.00
2013-8-22,64.4,59.3,56.7,57.0,55.4,54.5,94,87,76,30.01,29.93,15,3,19,0.00
2013-8-23,58.5,56.6,54.7,55.9,55.0,53.6,97,94,89,29.96,29.86,14,3,16,0.00
2013-8-24,63.0,58.3,55.0,59.2,56.7,54.5,99,95,84,29.94,29.87,11,3,16,0.00
2013-8-25,66.7,61.6,58.6,65.3,60.4,58.3,100,96,88,29.98,29.92,9,2,14,0.01
2013-8-26,63.9,59.5,57.4,59.2,57.5,56.1,98,93,80,30.04,29.94,10,2,16,0.02
2013-8-27,63.1,57.9,54.1,60.4,56.9,53.8,99,97,86,29.94,29.87,9,3,13,0.00
2013-8-28,67.6,60.4,56.5,63.5,59.7,56.3,100,98,86,29.97,29.88,9,2,14,0.02
2013-8-29,67.8,61.9,59.0,63.7,60.7,59.0,100,96,83,30.10,29.98,11,2,18,0.02
2013-8-30,69.4,61.9,57.6,64.6,59.8,56.8,100,93,79,30.07,29.96,11,3,14,0.01
2013-8-31,61.9,58.0,55.2,59.9,57.3,54.9,100,98,91,30.02,29.94,10,3,16,0.01
2013-9-1,64.0,59.3,54.9,61.3,58.4,54.7,100,97,86,29.99,29.93,13,2,16,0.01
2013-9-2,70.2,63.3,59.4,64.2,61.6,59.0,100,95,80,30.00,29.92,10,3,16,0.00
2013-9-3,67.5,61.6,57.7,62.2,59.8,57.7,100,94,78,30.04,29.96,12,3,18,0.00
2013-9-4,67.5,61.4,58.5,62.4,59.8,57.9,99,95,83,30.07,29.98,11,4,25,0.00
2013-9-5,67.1,60.8,57.4,60.8,58.3,55.0,99,92,79,30.06,29.98,15,4,24,0.00
2013-9-6,77.5,67.2,54.1,59.9,54.5,49.1,97,67,43,30.02,29.86,9,2,13,0.01
2013-9-7,81.3,67.9,55.0,61.2,55.0,48.7,98,66,45,29.90,29.84,11,3,15,0.00
2013-9-8,65.1,57.7,54.0,62.4,56.2,53.4,100,95,82,29.91,29.81,10,2,13,0.00
2013-9-9,67.8,58.2,53.4,62.6,56.6,53.1,100,95,77,29.85,29.75,7,2,14,0.02
2013-9-10,66.0,60.6,56.5,61.7,58.7,56.1,100,94,82,29.93,29.77,12,3,19,0.01
2013-9-11,67.6,62.7,60.6,59.9,58.8,57.9,95,87,75,30.03,29.92,11,2,13,0.00
2013-9-12,65.5,60.2,57.0,61.0,59.1,56.7,99,96,84,30.01,29.93,10,2,19,0.03
2013-9-13,59.0,56.3,54.1,58.3,55.8,53.8,100,98,95,29.94,29.81,17,4,22,0.01
2013-9-14,61.2,56.7,54.1,59.0,55.9,54.0,100,97,89,29.86,29.79,14,4,21,0.01
2013-9-15,66.7,60.2,55.4,59.9,56.9,54.5,98,89,73,29.91,29.81,15,4,23,0.00
2013-9-16,64.9,59.4,56.1,60.3,57.5,55.8,100,94,77,29.93,29.83,17,3,21,0.00
2013-9-17,63.0,58.6,55.8,57.6,55.5,52.0,99,90,76,29.92,29.86,23,5,27,0.00
2013-9-18,72.0,59.8,52.7,56.8,53.0,51.1,95,79,52,29.95,29.87,8,2,14,0.00
2013-9-19,73.8,59.6,52.0,58.3,53.5,49.1,95,82,58,29.89,29.80,9,2,11,0.00
2013-9-20,67.1,59.4,53.1,62.8,57.9,51.8,99,95,86,29.90,29.80,9,2,12,0.01
2013-9-21,63.0,59.7,56.1,61.0,58.4,55.2,99,95,89,29.93,29.83,11,2,14,0.57
2013-9-22,64.0,58.5,52.7,57.2,55.4,52.3,99,90,73,30.04,29.92,13,2,17,0.01
2013-9-23,72.7,61.8,55.9,61.3,56.7,52.0,97,84,58,30.05,29.97,10,2,12,0.00
2013-9-24,65.1,58.6,55.6,58.6,55.5,52.3,96,89,78,30.04,29.94,18,5,28,0.00
2013-9-25,61.3,56.6,53.4,53.2,51.0,48.2,95,82,69,29.97,29.86,16,6,25,0.00
2013-9-26,65.8,57.3,50.4,50.4,46.5,40.8,85,68,42,30.01,29.87,10,2,14,0.00
2013-9-27,72.3,62.3,52.5,50.7,42.7,35.8,91,51,27,30.13,30.01,9,3,13,0.00
2013-9-28,73.0,60.2,51.6,56.5,51.4,44.4,97,75,36,30.12,30.05,9,2,14,0.00
2013-9-29,68.2,61.1,54.1,62.1,58.9,53.6,99,93,77,30.14,30.09,7,1,12,0.01
2013-9-30,64.9,60.8,54.7,63.9,59.6,48.0,100,96,73,30.10,30.01,8,2,13,0.00
2013-10-1,63.7,57.2,52.3,53.8,52.0,49.8,97,84,64,30.04,29.96,11,2,13,0.00
2013-10-2,62.6,56.0,50.7,53.4,50.8,48.6,96,83,68,30.04,29.96,12,3,15,0.01
2013-10-3,66.7,60.4,49.5,48.4,43.5,32.5,84,56,28,30.12,29.99,15,2,23,0.00
2013-10-4,78.1,68.5,62.4,35.8,31.2,25.9,35,26,15,30.11,30.00,22,5,27,0.00
2013-10-5,81.5,68.4,62.2,41.2,32.8,24.4,43,28,13,30.21,30.11,9,1,11,0.00
2013-10-6,81.5,68.3,62.2,42.3,35.5,27.0,42,30,18,30.13,30.01,10,2,11,0.00
2013-10-7,72.7,62.6,52.9,51.1,42.5,30.6,91,52,25,30.01,29.91,9,2,13,0.00
2013-10-8,64.2,55.4,50.2,53.1,50.1,48.0,95,83,56,29.94,29.74,11,2,12,0.00
2013-10-9,61.9,54.7,48.9,49.8,47.9,44.4,94,79,54,29.80,29.66,7,1,10,0.01
2013-10-10,59.5,53.3,49.6,52.3,49.9,47.8,96,89,75,30.04,29.79,10,2,17,0.00
2013-10-11,55.2,51.1,48.9,50.4,49.1,48.0,97,93,83,30.12,30.02,8,2,15,0.00
2013-10-12,54.7,51.2,47.8,51.4,49.3,47.3,98,93,84,30.05,29.95,9,3,16,0.00
2013-10-13,66.7,55.6,48.6,54.9,49.5,43.2,98,82,43,30.09,29.96,6,1,10,0.00
2013-10-14,67.8,59.0,52.9,51.8,44.5,38.1,89,61,40,30.13,30.04,8,2,9,0.00
2013-10-15,76.8,65.0,59.2,49.8,38.2,32.7,68,39,21,30.06,29.99,11,2,16,0.00
2013-10-16,79.5,66.7,58.8,45.7,37.2,32.4,61,35,20,30.10,30.01,5,1,10,0.00
2013-10-17,75.9,64.0,52.0,50.7,41.9,34.7,93,48,24,30.09,30.00,5,1,9,0.00
2013-10-18,64.6,52.5,48.0,54.1,49.6,47.3,98,90,66,30.09,30.01,5,1,9,0.00
2013-10-19,72.7,55.2,46.6,54.5,49.3,45.9,98,83,43,30.11,30.04,5,1,8,0.01
2013-10-20,60.3,50.6,46.6,54.9,49.0,46.0,99,95,76,30.06,29.96,6,1,10,0.01
2013-10-21,54.3,49.9,48.4,52.3,49.1,48.0,99,97,89,30.04,29.96,8,1,10,0.00
2013-10-22,59.0,50.6,48.4,56.8,49.8,48.2,100,97,86,30.05,29.97,8,1,9,0.00
2013-10-23,57.9,50.0,47.1,55.9,49.3,46.9,100,97,83,30.01,29.96,12,2,12,0.01
2013-10-24,55.6,51.0,48.4,50.5,49.5,48.2,99,94,83,30.14,30.01,9,2,14,0.00
2013-10-25,59.9,53.8,48.4,53.1,50.5,47.1,97,89,77,30.20,30.12,8,2,12,0.00
2013-10-26,68.7,54.1,48.0,57.4,50.9,47.5,99,90,56,30.17,30.06,6,1,9,0.01
2013-10-27,54.3,51.4,48.6,52.9,49.9,48.2,99,95,86,30.07,29.72,20,4,29,0.01
2013-10-28,56.1,52.4,48.9,51.6,49.8,47.3,96,91,81,29.87,29.70,15,4,25,0.00
2013-10-29,57.7,53.2,49.6,51.8,49.7,46.0,96,88,69,30.08,29.87,9,1,10,0.00
2013-10-30,61.7,52.6,47.7,52.9,48.9,45.5,98,88,69,30.18,30.08,8,1,12,0.01
2013-10-31,68.2,56.6,47.8,52.2,47.2,41.9,93,72,50,30.21,30.11,7,1,7,0.00
2013-11-1,70.9,60.9,53.2,50.2,47.1,41.9,86,62,40,30.16,30.04,8,2,14,0.00
2013-11-2,61.3,53.3,48.6,54.1,49.3,45.0,98,87,56,30.05,29.94,10,2,16,0.00
2013-11-3,58.5,52.3,47.1,48.2,43.5,38.8,91,73,49,30.09,29.95,11,1,12,0.00
2013-11-4,60.6,54.3,45.1,45.7,41.0,35.6,88,62,43,30.11,29.95,9,1,11,0.00
2013-11-5,68.5,59.3,50.5,47.3,37.4,32.5,81,45,28,30.24,30.09,6,1,10,0.00
2013-11-6,67.5,60.9,52.3,42.4,40.5,36.1,64,47,37,30.28,30.17,9,2,11,0.00
2013-11-7,69.3,58.5,52.5,52.7,45.9,39.4,97,66,35,30.19,30.10,6,1,10,0.00
2013-11-8,66.9,55.0,49.1,54.5,50.6,47.3,98,86,58,30.11,30.00,9,-5,13,0.01
2013-11-9,67.6,54.7,47.5,52.2,49.8,46.2,97,85,54,30.07,30.00,9,-6,13,0.01
2013-11-10,59.9,53.2,49.6,52.7,50.4,48.0,97,91,74,30.15,30.05,8,-2,11,0.00
2013-11-11,62.2,54.9,50.7,52.9,50.5,47.1,95,85,70,30.20,30.09,5,-16,12,0.00
2013-11-12,65.7,58.9,53.2,54.0,51.2,47.8,96,76,59,30.30,30.18,6,-2,9,0.00
2013-11-13,67.3,56.0,51.4,57.2,52.6,50.9,99,89,65,30.28,30.14,7,-2,12,0.01
2013-11-14,54.3,51.9,50.4,54.0,50.9,48.2,100,96,90,30.14,29.92,12,3,19,0.01
2013-11-15,58.3,51.8,47.5,49.8,47.7,44.6,96,86,64,29.94,29.77,12,2,17,0.00
2013-11-16,57.6,51.3,46.0,51.4,48.1,43.2,98,89,65,29.96,29.79,12,-1,16,0.01
2013-11-17,55.9,50.9,47.8,49.8,48.2,46.0,98,91,76,30.12,29.96,8,-5,13,0.00
2013-11-18,56.3,51.1,46.6,50.5,48.5,45.7,98,91,75,30.19,30.11,7,-13,10,0.01
2013-11-19,57.7,55.1,51.8,56.3,52.8,48.7,98,92,83,30.13,29.97,7,-13,10,0.34
2013-11-20,57.2,54.6,50.2,56.8,54.0,49.1,99,98,94,29.97,29.86,9,-16,13,0.69
2013-11-21,60.4,54.5,49.6,50.2,37.9,24.6,98,60,26,30.00,29.92,21,5,29,0.01
2013-11-22,69.3,59.9,54.9,40.1,22.9,15.3,47,25,13,30.04,29.94,17,5,24,0.00
2013-11-23,64.2,56.9,50.4,49.5,31.3,20.1,91,41,22,30.08,29.97,13,3,19,0.00
2013-11-27,54.8,54.6,54.3,46.5,46.2,45.5,75,73,71,29.88,29.88,0,0,6,0.00
2013-11-28,66.7,58.1,52.8,47.4,44.7,42.0,78,62,44,30.07,29.87,4,1,11,0.00
2013-11-29,66.6,56.4,51.8,52.8,46.0,42.1,89,69,44,30.21,30.09,7,1,7,0.00
2013-11-30,60.5,53.4,48.7,51.7,49.1,46.6,98,86,65,30.28,30.21,3,1,7,0.01
2013-12-1,65.4,56.8,49.4,50.7,47.6,45.1,95,73,52,30.35,30.23,3,1,7,0.00
2013-12-2,56.3,51.9,48.4,54.1,50.4,46.2,99,95,79,30.24,29.99,9,3,16,0.01
2013-12-3,54.1,49.2,45.5,53.5,39.8,31.5,99,71,57,29.98,29.87,11,4,23,0.01
2013-12-4,48.1,43.4,40.7,34.2,29.3,24.5,71,58,41,30.08,29.97,7,1,11,0.00
2013-12-5,41.4,41.3,41.1,34.9,33.9,32.8,78,75,72,30.17,30.16,0,0,7,0.00
2013-12-6,49.7,44.9,38.4,47.7,39.2,31.3,95,81,52,30.20,29.94,7,2,16,0.07
2013-12-7,47.0,42.4,37.6,45.6,32.5,28.1,95,68,49,30.26,29.95,15,5,18,0.02
2013-12-8,44.3,39.7,36.1,31.8,25.6,20.2,80,58,41,30.33,30.24,7,2,13,0.00
2013-12-9,49.0,41.4,34.5,32.7,21.9,14.7,73,49,25,30.42,30.32,8,2,19,0.00
2013-12-10,52.2,44.3,38.8,33.8,30.8,27.2,76,60,39,30.41,30.22,7,3,13,0.00
2013-12-11,54.6,46.9,42.0,34.3,31.8,27.1,74,57,35,30.25,30.19,8,4,15,0.00
2013-12-12,54.9,47.3,43.1,46.2,38.6,35.5,94,73,48,30.27,30.18,8,2,11,0.00
2013-12-13,57.0,48.2,43.3,46.4,43.5,35.8,97,86,45,30.34,30.24,3,1,8,0.01
2013-12-14,59.9,50.6,44.2,45.3,39.5,35.9,97,68,41,30.39,30.32,7,2,16,0.00
2013-12-15,58.3,53.2,46.3,40.6,38.1,34.8,75,57,48,30.36,30.24,10,4,13,0.00
2013-12-16,66.3,56.6,51.8,38.3,36.5,35.2,59,48,32,30.24,30.12,8,3,16,0.00
2013-12-17,63.0,56.4,50.9,42.9,40.4,37.8,65,55,48,30.17,30.04,8,2,13,0.00
2013-12-18,55.0,50.4,48.2,48.3,44.4,37.2,95,81,51,30.03,29.79,13,3,20,0.00
2013-12-19,53.8,49.5,45.4,46.1,38.9,24.8,93,69,36,29.95,29.74,9,3,21,0.00
2013-12-20,53.8,49.3,46.2,45.5,32.7,16.4,92,56,29,30.01,29.95,4,1,9,0.00
2013-12-21,55.3,50.4,45.8,49.9,47.4,43.3,96,90,78,30.08,29.98,4,1,8,0.00
2013-12-22,63.3,55.4,48.7,48.5,42.3,39.3,87,63,42,30.30,30.09,5,1,9,0.00
2013-12-23,59.9,53.0,47.3,44.7,41.3,40.0,84,65,51,30.39,30.29,5,1,9,0.00
2013-12-24,67.2,56.4,51.4,44.5,41.9,40.4,72,59,41,30.34,30.21,3,0,7,0.00
2013-12-25,64.3,57.7,53.8,43.0,40.1,34.6,65,52,46,30.28,30.21,10,2,21,0.00
2013-12-26,64.0,56.5,50.7,41.8,39.3,36.5,67,53,40,30.24,30.17,5,2,13,0.00
2013-12-27,59.2,53.8,49.9,42.0,39.5,37.5,69,59,51,30.22,30.14,6,1,10,0.00
2013-12-28,60.6,53.0,45.9,39.7,36.0,28.1,73,54,29,30.15,30.06,4,1,12,0.00
2013-12-29,65.1,58.1,50.9,36.2,26.3,19.7,57,31,18,30.17,30.10,9,3,18,0.00
2013-12-30,61.4,52.6,46.6,48.3,42.0,35.8,96,69,39,30.25,30.18,3,1,10,0.00
2013-12-31,59.8,49.7,44.7,46.7,42.8,37.1,97,79,49,30.27,30.18,3,1,8,0.00
2014-1-1,61.7,55.2,49.0,44.2,38.8,31.4,77,55,37,30.21,30.14,4,1,5,0.00
2014-1-2,62.4,56.2,49.0,39.3,37.7,36.2,64,50,40,30.18,30.05,7,2,10,0.00